GFSSE_sfc_temp_324.txt.gz
Temp
73 78 82 83 83 83 83 83 83 83 83 83 83 83 83 83 84 84 84 84 84 84 84 84 84 84 84 84 84 84 84 83 83 83 83 83 83 82 82 82 83 82 83
77 80 82 83 83 83 83 83 83 83 83 83 83 83 83 84 84 84 84 84 84 84 84 84 84 84 83 84 84 84 84 83 84 84 84 84 84 83 83 83 83 83 83
79 80 82 82 83 83 83 83 83 83 83 83 83 83 83 83 84 84 84 84 84 84 84 84 84 84 83 83 84 84 83 80 84 84 82 76 81 84 84 84 84 83 83
79 78 80 82 83 83 83 83 83 83 83 83 83 83 84 84 84 84 84 84 84 84 84 84 84 84 84 83 83 83 82 81 81 81 78 80 83 84 84 84 83 83 82
78 78 80 82 83 83 83 83 83 83 83 83 83 83 84 84 84 84 84 84 84 84 84 84 84 83 83 83 83 82 82 82 82 82 77 76 77 83 83 83 83 83 82
78 80 82 83 83 83 83 83 83 83 83 83 84 83 84 84 84 84 84 84 84 84 84 84 84 83 83 83 83 83 83 82 84 79 78 77 75 83 83 83 83 83 82
77 79 80 82 83 83 83 83 83 83 83 83 84 83 83 83 84 84 84 84 84 84 84 84 84 84 84 84 84 84 83 84 81 78 78 77 75 82 83 83 83 83 82
77 78 80 82 83 83 83 83 83 83 83 83 83 83 83 83 83 83 83 84 84 84 84 84 84 84 84 84 83 82 83 81 80 78 77 77 78 82 83 83 82 82 82
79 77 76 77 81 83 83 83 83 83 83 83 83 83 83 83 83 83 83 83 84 84 84 84 84 84 84 84 80 82 82 81 74 75 81 77 80 82 83 82 82 82 82
78 76 73 74 75 76 78 83 83 83 83 83 83 83 83 84 84 84 82 82 84 84 84 84 84 84 83 82 81 83 83 81 73 75 77 77 80 82 83 82 82 82 82
77 75 75 74 72 73 75 80 82 83 83 84 83 84 82 75 77 79 82 83 84 84 85 84 84 84 83 83 82 81 83 74 73 73 75 80 80 82 83 82 82 82 82
74 75 76 74 72 71 81 75 74 77 76 76 76 75 75 75 75 82 82 84 82 81 81 80 78 83 77 78 75 80 74 75 74 76 74 79 80 82 83 82 81 81 82
77 78 77 74 73 72 76 72 73 74 74 74 72 73 74 76 72 72 73 73 72 77 73 76 77 75 73 76 74 71 73 75 75 76 78 79 81 82 83 82 81 81 82
78 80 79 77 75 73 73 74 75 75 75 73 73 73 72 72 71 70 71 73 72 72 72 73 74 73 72 74 77 72 73 74 75 75 75 79 81 82 83 82 82 82 81
80 81 80 79 76 74 74 73 73 74 76 75 73 72 72 72 69 70 70 71 71 72 71 71 73 72 72 75 75 75 75 76 75 75 72 80 82 81 82 82 82 82 82
83 78 79 79 76 76 75 75 76 76 76 76 74 76 71 72 72 71 70 70 71 72 71 69 72 74 73 77 76 75 76 76 78 78 73 74 82 81 82 82 82 82 82
80 78 80 78 79 77 77 77 76 76 76 77 78 75 75 73 73 72 70 69 71 71 71 69 70 75 72 74 77 80 76 78 77 78 75 76 81 82 81 82 82 82 82
80 79 79 86 79 78 77 77 78 78 76 78 78 77 78 77 76 74 70 70 72 72 72 71 70 70 72 74 76 75 77 78 79 80 80 75 81 81 80 81 81 81 82
81 79 78 78 78 78 77 76 77 80 76 78 79 78 79 80 78 77 73 72 72 73 73 73 74 73 73 73 78 75 74 75 77 82 80 79 80 80 75 80 81 81 82
82 81 79 78 77 78 76 75 76 76 76 79 77 78 80 80 82 76 78 77 73 71 71 74 75 75 74 74 80 77 74 74 73 74 77 79 80 81 79 79 78 80 81
82 79 78 77 76 74 72 72 73 75 75 77 77 81 80 80 80 74 74 74 73 73 69 73 74 74 71 71 71 71 72 75 74 73 74 73 77 79 77 82 77 75 76
81 80 76 79 75 76 74 73 74 74 75 76 76 75 77 76 76 75 74 74 73 70 72 72 72 70 70 70 68 68 66 71 71 73 73 75 76 73 75 79 77 74 73
81 79 78 79 77 76 76 74 73 75 73 73 72 72 73 74 75 75 73 73 73 72 71 71 71 69 67 69 70 68 64 63 65 70 71 72 73 74 73 75 73 72 70
82 83 81 79 79 78 78 75 73 72 69 69 70 72 71 72 73 73 73 73 72 71 71 70 71 69 69 67 68 71 69 68 62 63 69 72 72 75 73 73 72 73 71
82 83 82 79 79 79 75 74 71 71 71 70 70 71 70 70 71 72 71 70 69 68 68 70 69 69 67 64 63 63 64 65 64 63 62 64 67 68 71 73 71 69 70
80 81 82 78 73 74 73 72 71 69 69 68 69 70 69 68 68 67 67 66 65 66 67 68 68 67 65 65 64 63 63 62 61 61 60 60 60 64 67 70 70 68 69

GFSSE_sfc_temp_327.txt.gz
Temp
73 76 82 83 83 83 83 83 83 83 83 83 83 83 83 84 84 83 83 84 84 84 84 84 84 84 84 84 83 83 83 83 83 83 83 83 82 82 83 83 83 82 82
76 79 82 83 83 83 83 83 83 83 83 83 83 83 83 84 84 84 84 84 84 84 84 84 84 83 84 84 84 84 83 83 83 83 83 83 83 83 83 83 83 81 82
77 79 81 82 83 83 83 83 83 83 83 83 83 83 83 84 84 84 84 84 84 84 84 84 84 84 83 84 83 83 81 83 83 82 82 76 77 83 83 83 83 83 83
78 77 79 82 83 83 83 83 83 83 83 83 83 83 84 83 83 83 84 84 84 84 84 84 84 84 83 82 82 82 82 81 82 82 76 79 82 83 83 84 83 83 83
76 76 79 82 83 83 83 83 83 83 83 83 83 83 83 84 84 84 84 84 84 84 84 84 83 83 83 82 83 83 82 82 82 81 76 75 77 82 83 83 83 83 82
77 79 82 83 83 83 83 83 83 83 83 83 83 83 83 84 84 84 84 84 84 84 83 84 84 83 83 83 83 83 83 83 83 78 76 76 75 83 83 83 83 83 82
75 77 80 82 83 83 83 83 83 83 83 83 83 84 84 84 84 84 84 84 83 83 83 83 84 84 84 84 84 83 83 83 80 77 76 75 74 82 83 83 83 83 82
75 76 79 82 83 83 83 83 83 83 83 83 83 83 83 83 83 83 83 83 83 83 83 83 84 84 84 84 82 82 83 82 80 77 76 75 77 81 83 83 82 82 82
77 75 75 77 81 83 83 83 83 83 83 83 83 83 83 83 83 83 83 83 83 83 83 83 84 84 84 83 82 82 82 82 74 75 79 75 79 82 83 83 82 82 82
74 74 73 74 76 76 77 83 83 83 83 83 83 83 83 83 83 83 82 82 83 83 84 84 84 84 83 83 83 83 84 82 72 74 77 75 80 82 83 82 82 82 82
74 72 71 72 73 74 75 79 82 83 83 83 82 83 80 74 76 78 81 82 83 84 84 83 82 83 83 82 84 83 83 75 72 73 75 79 80 82 83 82 82 82 82
70 71 71 71 70 72 80 75 74 77 75 74 74 74 73 73 73 80 80 83 82 82 82 82 82 79 80 75 76 79 75 74 73 74 72 80 80 82 83 82 82 81 82
72 73 73 71 70 70 73 71 72 73 73 73 73 73 73 75 73 72 73 73 72 77 73 75 76 74 74 73 75 73 74 74 74 76 77 80 80 82 83 82 81 81 82
73 74 73 72 69 69 70 71 71 72 73 71 72 73 73 70 70 71 71 73 72 73 72 72 72 73 72 74 75 74 74 74 74 75 75 80 80 82 83 82 82 81 81
73 75 74 73 70 70 70 71 71 72 73 72 70 72 72 71 69 70 70 71 71 71 71 70 71 72 73 74 75 75 74 76 73 73 72 78 81 81 82 83 82 82 82
77 76 75 73 72 72 71 71 72 73 73 73 72 72 72 71 69 69 70 69 70 71 71 70 70 70 72 74 74 75 75 75 76 75 74 73 80 80 82 82 82 82 82
78 78 76 74 74 73 73 73 73 74 75 74 75 73 72 72 72 71 69 69 71 72 72 71 71 71 71 73 73 74 75 76 75 76 76 74 74 79 81 81 82 82 82
79 76 77 82 76 75 74 74 74 75 73 75 75 73 74 74 75 72 70 71 71 72 73 71 70 69 70 71 72 74 74 76 77 77 77 74 75 81 81 81 81 81 81
79 78 77 78 76 76 75 75 75 76 73 73 74 75 75 75 76 72 71 70 71 71 72 71 71 70 71 72 75 74 71 74 75 80 78 77 76 78 76 80 81 80 81
80 79 80 79 77 75 74 74 74 74 75 76 75 77 77 78 76 74 73 71 71 70 71 71 72 73 72 71 78 76 72 73 72 71 74 77 76 78 77 76 78 80 81
80 78 78 76 74 73 71 71 72 74 75 74 75 78 76 77 77 73 73 72 71 70 70 70 72 72 70 69 69 70 71 73 71 70 73 71 72 75 76 77 75 74 76
79 78 76 77 73 73 73 72 74 73 72 72 72 74 76 77 76 74 73 72 72 69 68 71 71 69 69 69 67 66 65 70 69 71 70 71 70 70 71 75 73 72 71
78 77 77 77 76 75 73 71 71 72 71 70 71 71 73 76 76 75 74 74 72 71 71 71 70 69 68 68 68 66 63 62 64 68 69 70 71 71 72 72 71 71 70
81 80 79 78 75 75 73 72 71 71 68 69 70 71 71 72 74 74 74 72 72 71 70 69 71 70 69 67 68 69 66 66 62 61 67 67 69 71 73 72 70 70 69
78 78 79 78 76 77 74 75 70 69 69 70 71 70 69 69 70 70 70 69 68 68 68 69 68 68 66 64 64 64 63 62 63 63 58 64 66 68 70 70 69 68 70
75 76 78 75 74 75 72 71 71 71 69 69 68 69 67 67 67 66 67 66 65 66 66 66 66 66 65 64 63 65 65 62 60 59 59 62 64 66 64 68 68 66 67

GFSSE_sfc_temp_333.txt.gz
Temp
81 84 82 83 83 83 83 84 84 84 84 83 83 83 84 84 84 84 84 83 83 83 83 84 84 84 83 84 84 84 84 84 83 83 82 82 82 83 83 83 84 90 83
83 84 82 83 83 83 83 83 83 83 84 84 83 84 84 84 84 83 83 84 84 84 84 84 84 84 84 84 84 84 84 83 83 83 82 83 83 82 83 83 85 86 83
84 86 85 82 83 83 83 83 83 83 83 84 83 84 83 83 84 83 83 84 84 84 84 84 84 84 84 83 83 84 83 82 83 82 82 90 89 83 83 83 83 83 82
86 87 87 82 83 83 82 83 83 83 83 84 83 83 83 84 84 84 84 84 84 84 84 84 84 84 84 84 83 83 83 83 82 83 88 89 90 83 83 83 83 82 82
86 88 87 83 83 83 83 83 83 83 83 83 83 84 84 84 84 84 84 84 84 84 84 84 84 84 84 83 83 83 83 83 83 87 88 89 91 86 84 83 83 83 83
85 87 85 83 83 82 83 83 82 83 83 84 84 84 83 84 84 84 84 84 84 84 84 84 84 84 84 84 83 83 83 83 83 89 89 87 90 84 83 84 84 83 82
86 88 87 82 83 83 83 83 83 83 83 83 84 84 84 84 84 84 84 84 84 84 84 84 84 84 84 84 83 83 83 84 89 88 87 89 90 83 83 83 83 83 82
87 87 88 83 83 83 82 83 83 83 83 83 84 84 84 84 84 84 84 84 83 83 83 83 84 84 84 84 83 83 83 83 88 88 88 89 83 82 83 83 83 83 82
87 87 87 88 85 83 83 83 83 82 82 83 83 83 83 83 83 83 83 83 83 83 83 83 84 84 84 84 83 83 83 83 90 90 90 90 80 82 83 83 83 83 82
86 87 86 86 88 87 88 83 83 83 83 83 83 83 83 83 83 83 82 83 83 83 84 84 84 84 84 84 84 84 83 84 92 90 90 91 80 82 83 83 83 82 82
83 85 86 86 85 85 86 86 83 83 83 83 84 83 84 89 89 87 85 82 84 84 84 84 84 83 83 83 82 83 84 92 90 90 93 81 80 82 83 83 82 82 82
81 83 85 86 86 86 87 86 86 87 88 88 87 86 87 87 87 89 86 83 84 84 84 84 83 83 84 92 94 85 92 90 91 92 92 80 81 82 83 83 82 82 82
82 83 84 84 84 86 86 86 86 86 87 86 83 83 84 86 86 89 87 89 89 81 89 88 88 88 87 91 91 93 91 90 94 93 90 80 81 82 83 82 82 82 82
82 83 85 84 83 84 85 84 85 85 85 85 86 83 82 84 84 84 86 86 84 87 86 85 87 87 89 89 91 91 92 94 95 94 91 81 81 81 83 82 82 82 82
82 82 84 82 81 82 81 84 83 85 85 86 84 83 84 85 84 85 86 87 86 87 86 85 85 86 86 90 91 91 93 94 93 93 92 81 81 81 82 83 82 82 82
83 83 85 82 81 81 81 81 82 84 85 84 85 85 83 85 84 85 84 85 85 86 87 86 86 86 87 89 91 91 90 93 92 92 93 91 81 81 81 82 83 82 82
85 85 83 83 83 80 79 81 83 85 87 85 86 84 83 83 83 83 85 84 86 85 83 83 84 86 88 89 88 91 91 91 92 90 91 93 91 81 81 82 82 82 82
86 82 83 86 84 82 81 81 83 84 85 86 86 86 84 83 82 82 85 86 87 86 86 84 85 86 88 90 90 90 89 90 90 90 91 91 91 94 84 81 81 81 82
85 84 82 83 84 84 81 84 83 84 85 86 87 88 86 85 85 84 86 87 83 86 86 86 84 84 86 87 90 90 88 88 88 91 88 87 88 90 92 83 81 81 82
86 85 84 84 83 82 83 82 85 86 86 86 86 88 87 87 84 84 87 85 85 85 86 86 83 85 82 80 85 86 87 88 87 86 86 88 88 88 91 89 91 88 81
87 84 83 82 82 81 81 82 83 84 86 86 86 86 86 86 85 84 86 86 85 83 82 80 79 81 85 86 84 85 85 87 87 86 86 82 81 82 84 85 87 88 89
86 84 83 83 82 81 83 83 85 85 86 88 87 86 86 85 85 85 84 84 82 81 74 71 75 73 75 84 83 82 79 82 84 83 83 84 83 81 75 74 73 74 78
86 84 83 82 83 82 83 84 83 83 84 84 84 85 84 83 83 84 83 79 73 71 70 70 71 73 72 75 79 75 73 72 80 79 78 80 80 80 79 78 74 70 70
86 87 84 82 82 83 82 82 81 83 82 86 85 82 79 79 80 79 77 75 73 73 71 71 76 77 77 75 69 77 75 77 77 72 74 74 79 78 79 81 80 75 70
87 83 81 79 82 83 82 82 82 81 84 83 78 74 72 72 74 71 71 72 72 72 71 72 72 73 72 72 71 69 76 77 75 75 70 70 71 71 74 77 81 81 80
84 82 83 76 77 81 79 80 80 79 80 77 74 70 69 70 69 69 69 70 72 72 73 73 70 73 69 68 72 71 66 68 72 71 70 72 70 70 77 78 77 75 77

GFSSE_sfc_temp_336.txt.gz
Temp
88 90 82 83 84 84 84 84 84 84 84 83 83 83 84 84 84 84 84 84 84 84 84 84 84 84 84 84 84 84 84 84 84 83 83 83 82 83 83 84 85 90 83
93 92 82 83 84 83 84 84 84 84 84 84 83 84 84 84 84 84 84 84 84 84 84 84 84 84 84 84 84 84 84 83 84 84 84 83 83 83 83 84 86 88 84
93 93 86 82 84 84 83 84 84 84 84 84 84 84 83 84 84 84 84 84 84 84 84 84 84 84 84 84 84 84 83 83 83 83 85 90 90 84 84 84 83 83 84
95 94 92 82 83 83 83 83 84 84 84 84 84 84 83 84 84 84 85 84 84 85 85 85 84 84 84 83 84 84 83 83 83 84 95 94 95 83 84 83 83 83 83
95 96 90 83 83 83 83 83 83 83 84 83 83 83 84 83 84 84 85 84 84 84 84 84 84 84 84 84 83 84 84 83 84 88 93 96 97 86 83 83 83 83 83
95 96 85 83 84 84 84 83 83 83 84 83 84 84 84 84 84 84 85 84 84 84 84 84 84 84 84 84 84 84 83 84 83 96 95 92 98 84 84 84 84 84 82
95 96 91 83 84 84 83 83 83 83 83 84 84 83 84 84 84 85 84 84 84 84 84 84 85 85 84 84 84 84 84 84 93 95 94 95 93 83 84 84 83 83 82
96 96 92 84 83 83 83 83 83 83 83 84 84 84 84 84 84 84 84 84 84 84 84 84 84 84 84 84 84 83 83 84 92 96 95 95 82 83 84 84 83 83 83
97 96 94 93 88 84 83 84 83 84 84 84 84 84 84 84 84 84 84 84 84 84 84 84 84 84 84 84 84 84 84 84 95 100 98 97 80 82 84 83 83 83 82
96 97 95 91 93 92 91 84 83 83 83 84 84 84 84 84 84 84 83 83 84 84 84 84 85 84 84 84 84 84 84 84 100 98 99 97 81 82 84 83 83 83 83
93 95 96 95 93 92 93 89 84 83 84 84 85 84 85 95 93 90 88 83 84 84 85 85 85 84 83 84 84 84 84 99 98 99 103 81 81 82 84 83 83 83 82
91 94 95 97 95 94 96 91 92 93 94 93 92 89 94 96 96 95 89 83 84 84 83 84 84 83 84 101 99 86 97 100 99 103 101 81 81 82 83 83 82 82 82
93 94 95 96 95 97 96 95 95 96 95 93 89 89 93 94 93 95 97 96 95 85 97 93 95 97 95 98 101 103 102 100 103 103 91 81 81 82 83 83 82 82 82
93 93 95 94 92 94 95 94 95 95 94 94 93 89 90 91 92 92 96 96 91 96 94 94 98 96 96 97 98 100 100 104 105 104 94 82 81 82 83 83 82 82 82
92 92 94 92 89 91 90 92 92 93 93 95 93 90 92 93 91 93 95 95 95 97 96 93 95 95 94 97 99 100 101 103 103 103 102 83 81 81 82 83 83 82 82
93 93 95 91 89 90 88 88 90 93 93 93 94 94 89 93 91 93 92 94 95 95 96 95 94 94 95 96 99 100 99 102 101 100 104 97 82 81 82 82 83 83 82
94 95 93 91 91 88 87 87 90 93 95 94 94 92 90 91 90 89 93 93 95 95 90 92 92 95 95 99 95 98 98 99 101 97 99 101 97 81 81 82 82 82 82
95 92 92 94 93 89 88 88 92 93 94 94 95 95 91 90 90 89 93 95 97 94 95 94 93 92 94 96 96 98 98 98 96 97 98 98 100 102 84 81 81 82 82
94 91 90 91 93 91 88 90 90 91 93 95 96 96 93 92 92 90 94 96 92 94 95 94 95 91 93 93 95 98 96 95 96 99 93 93 95 96 100 82 81 81 82
95 93 91 91 90 89 90 89 92 94 94 96 95 96 95 95 92 90 94 92 91 93 93 92 86 88 91 93 96 96 95 97 96 96 95 98 95 94 97 95 93 91 81
96 92 90 89 88 89 89 89 90 91 93 95 95 93 93 94 93 90 94 94 92 90 86 83 82 80 81 89 88 93 93 96 95 95 96 92 87 79 84 87 92 92 84
95 93 90 90 88 87 90 90 93 93 96 96 96 94 92 92 92 91 91 92 89 85 81 80 77 72 72 75 75 83 83 88 91 91 91 92 88 86 84 77 78 82 76
94 92 91 89 89 88 90 91 90 92 92 92 92 93 93 90 90 90 89 88 82 86 86 79 72 71 69 71 73 70 72 77 84 86 84 87 86 88 87 82 76 75 72
96 96 93 86 86 89 88 89 86 89 89 94 94 91 84 84 84 85 83 81 81 76 78 73 74 70 72 70 78 82 75 79 79 78 82 83 85 85 85 87 84 80 76
98 97 94 87 88 90 88 88 89 85 92 93 90 78 77 79 80 79 78 79 74 76 75 73 72 71 74 72 75 80 76 83 73 76 79 77 82 83 83 80 86 86 86
93 94 93 85 82 84 87 85 84 86 86 82 82 77 84 84 84 79 79 77 71 71 72 73 75 72 68 76 81 81 79 73 71 80 81 79 80 81 84 85 79 81 87

GFSSE_sfc_temp_342.txt.gz
Temp
84 84 83 84 84 84 84 84 84 84 84 84 83 84 84 84 84 84 84 84 84 85 85 85 85 85 84 84 84 84 84 84 84 83 83 83 83 82 83 83 84 85 83
88 86 83 84 84 84 84 84 84 84 84 84 83 84 84 84 84 84 84 84 84 84 84 84 84 84 84 84 84 84 84 84 84 84 84 84 84 84 83 79 79 83 83
90 86 85 83 84 84 84 84 84 84 84 84 84 84 84 84 84 84 84 84 84 84 84 84 84 84 84 84 84 84 84 83 84 84 84 85 84 84 82 78 79 83 83
90 88 85 83 83 84 84 84 84 84 84 84 84 84 83 83 83 84 84 84 84 85 84 84 84 84 84 84 84 83 83 83 83 78 73 78 88 84 82 82 83 83 83
88 88 84 83 83 84 84 84 84 84 84 84 84 84 83 84 84 84 84 84 85 85 85 84 84 84 84 84 84 84 84 83 83 79 77 74 85 84 84 83 83 83 83
89 89 84 83 84 84 83 84 84 84 84 84 84 83 83 84 84 84 84 85 85 85 84 85 84 84 84 84 84 84 84 84 85 81 79 77 84 83 84 84 85 84 83
90 88 86 83 84 84 84 84 84 84 84 84 84 84 84 84 85 85 84 84 84 84 84 84 85 85 84 84 84 84 84 84 84 81 75 76 83 82 84 84 83 83 82
92 90 86 84 84 84 84 83 84 84 84 84 84 84 84 84 85 84 84 84 84 84 84 84 85 85 85 85 85 84 84 85 84 82 81 81 81 83 84 83 82 83 82
95 90 88 87 85 84 84 84 84 84 84 84 84 84 84 84 84 84 84 84 84 84 84 84 84 85 85 85 85 84 84 85 79 75 85 85 81 83 84 83 83 83 82
96 94 90 87 87 86 85 84 84 84 84 84 84 84 84 84 84 84 84 84 84 84 84 85 85 85 84 84 84 84 84 84 82 82 81 85 82 83 84 83 83 82 82
96 95 93 91 88 87 87 85 84 84 84 84 85 85 84 86 85 85 86 84 85 85 85 85 85 84 84 84 83 83 84 84 84 77 80 81 82 83 83 83 82 82 82
96 97 95 93 92 90 93 83 86 87 87 85 85 83 85 88 87 91 87 85 85 85 85 85 84 84 84 80 73 77 76 75 75 82 86 82 82 83 83 82 82 82 82
97 98 98 93 93 94 89 87 89 89 88 87 85 83 86 88 88 91 86 87 84 84 87 86 86 85 87 74 73 71 74 72 73 73 84 82 82 83 83 82 82 82 82
96 97 100 96 93 93 91 91 92 91 89 89 88 86 86 88 88 88 86 87 87 87 89 88 89 90 91 79 73 71 75 73 73 71 74 82 82 82 83 82 82 82 82
95 96 97 94 91 89 89 89 88 87 90 91 88 87 88 87 87 88 87 89 89 89 89 88 88 88 87 83 82 77 75 75 75 76 73 81 82 82 83 83 82 82 82
95 96 98 93 91 94 91 90 90 87 91 91 89 87 87 87 86 88 87 86 87 90 89 86 85 84 86 81 78 81 81 78 78 76 77 77 82 81 82 83 82 82 82
97 97 95 92 92 90 90 90 89 91 93 89 90 86 86 87 88 87 87 86 89 88 89 86 85 86 86 86 80 84 80 81 84 80 81 81 82 82 82 82 82 82 82
96 93 93 96 92 89 88 87 89 90 91 90 90 87 87 87 88 86 87 87 88 89 88 87 86 83 78 81 84 79 81 80 82 86 90 88 85 86 80 82 81 82 82
96 91 91 91 90 88 86 87 87 87 89 92 92 91 86 88 89 87 89 87 88 87 86 86 81 81 82 82 86 77 75 78 82 91 90 89 88 87 81 82 77 80 82
96 92 90 90 88 84 85 85 87 89 90 92 91 93 88 90 88 85 87 88 88 87 81 80 81 82 81 79 86 85 82 79 76 79 88 92 87 85 82 78 72 74 81
95 90 88 86 85 84 84 83 84 86 88 90 92 90 85 90 89 86 86 87 87 76 72 78 80 81 79 78 77 78 80 76 73 72 83 85 84 83 79 75 76 75 77
94 89 86 86 85 85 85 83 85 86 89 90 91 89 91 90 89 86 85 85 73 72 71 73 77 79 79 76 74 75 71 74 70 73 78 83 84 83 77 73 72 72 71
93 89 86 85 84 84 84 85 84 87 87 85 87 87 89 88 88 88 84 76 77 75 72 76 78 77 75 74 73 71 67 65 69 71 71 75 80 80 77 73 71 71 71
97 93 89 86 84 85 84 84 83 83 83 86 85 82 81 82 87 86 87 84 80 78 79 79 78 75 72 70 69 72 71 69 65 64 69 71 74 81 78 78 73 73 72
98 91 91 86 84 84 84 84 85 84 85 87 80 79 79 81 84 85 85 84 81 80 79 79 76 75 74 71 69 67 67 67 67 66 65 65 70 76 77 77 77 75 75
96 90 91 85 83 84 82 82 81 81 84 81 78 76 76 79 81 82 83 81 80 79 78 78 78 76 75 73 72 70 69 68 67 67 66 67 69 75 76 77 77 76 74

GFSSE_sfc_temp_348.txt.gz
Temp
75 79 83 83 84 84 84 83 83 83 83 83 83 83 83 83 84 84 84 84 84 84 84 84 84 84 83 84 83 84 83 82 83 83 84 84 83 83 83 84 83 82 83
78 81 82 83 84 84 83 83 83 83 83 83 83 83 83 83 84 84 84 84 84 84 84 84 84 84 84 83 82 84 83 83 83 84 84 84 84 83 83 83 83 82 83
79 81 82 83 83 84 83 83 83 83 83 83 83 83 83 83 84 84 84 84 84 84 84 84 83 84 83 83 83 83 82 83 83 83 83 78 80 83 82 84 83 83 83
80 79 80 82 83 83 83 83 83 84 84 83 83 83 83 83 84 84 84 83 83 83 83 83 84 84 83 83 83 83 83 80 79 79 74 77 81 83 83 84 83 83 82
78 78 80 83 83 83 83 83 83 83 83 83 83 83 83 83 84 84 84 84 84 84 84 84 84 84 83 83 83 83 83 82 82 79 75 72 72 82 83 82 83 83 82
78 79 82 83 83 83 83 83 83 83 83 83 83 83 83 84 84 84 84 84 84 84 84 84 84 84 83 83 82 83 83 81 80 76 75 75 74 82 83 83 83 83 82
78 79 81 83 83 83 83 83 83 83 83 83 83 83 83 84 84 84 84 84 84 84 84 84 84 84 84 83 84 84 84 83 79 76 76 74 73 82 83 83 83 83 82
78 79 80 83 83 83 83 83 83 83 83 83 83 83 83 84 84 84 84 84 84 84 84 84 84 84 83 84 83 83 82 81 77 74 75 73 76 82 83 83 83 82 82
80 78 79 80 82 83 83 83 83 83 84 83 84 83 83 84 83 84 83 83 84 84 83 84 84 84 83 82 82 81 81 80 73 73 77 74 78 82 84 83 82 82 82
78 77 75 77 77 77 80 83 83 83 83 84 83 84 84 84 84 84 83 83 84 84 84 84 84 84 82 81 80 81 81 80 73 75 75 75 80 82 83 83 82 82 82
78 76 76 76 75 75 76 81 83 83 84 84 83 84 83 77 79 81 82 83 84 84 84 84 84 81 81 81 80 79 77 73 74 73 74 77 79 81 83 82 82 82 82
75 76 76 76 76 75 82 78 76 79 78 77 77 77 76 76 76 82 82 84 84 84 85 84 84 81 80 73 75 76 73 73 74 73 73 77 79 82 83 82 82 81 82
77 78 78 76 77 77 80 76 76 75 75 74 75 75 75 78 76 78 77 81 78 82 80 81 82 76 75 72 72 72 73 73 71 71 74 77 80 82 83 82 82 81 82
78 79 79 79 78 78 77 76 75 75 74 73 74 75 74 74 75 76 76 76 75 75 76 76 77 73 73 74 74 73 73 72 71 72 71 77 80 82 83 82 82 81 82
79 80 80 80 79 80 77 76 76 76 76 75 75 76 75 74 75 76 77 76 74 75 75 74 73 73 73 73 74 74 74 74 74 74 71 77 78 80 82 83 82 82 82
81 82 82 81 81 80 78 76 78 79 77 75 76 78 78 76 76 76 76 76 75 77 78 73 73 73 71 72 72 74 74 74 74 74 71 71 79 78 81 82 82 82 82
83 84 82 81 81 80 79 77 78 80 80 78 78 76 77 77 76 77 77 77 76 78 78 77 74 71 71 73 72 74 74 73 74 74 73 73 74 80 80 81 82 81 82
80 82 82 87 83 80 78 78 78 81 80 80 80 76 77 78 78 76 76 77 79 78 74 76 73 71 71 71 71 71 73 72 73 75 74 74 74 74 80 81 81 81 81
81 82 81 81 80 79 77 76 77 77 77 76 79 77 76 78 80 77 76 77 78 76 76 73 73 75 70 70 72 70 70 71 74 77 77 73 73 75 76 80 81 81 82
82 82 82 81 78 77 76 75 74 75 75 76 75 79 78 77 78 77 77 75 75 76 73 73 73 71 70 72 80 74 70 71 71 70 73 78 74 74 73 74 73 74 79
83 81 80 78 74 75 71 71 71 72 74 74 75 78 78 78 78 76 74 73 71 70 72 73 71 70 69 70 70 68 68 69 68 69 71 72 72 71 72 72 71 72 72
82 82 79 79 75 77 78 73 72 71 73 75 76 77 81 79 79 78 73 71 70 68 68 71 72 69 68 69 67 64 63 65 67 69 71 71 70 71 70 70 71 72 72
82 82 80 79 78 78 75 72 71 71 72 73 74 75 78 79 81 81 74 72 71 69 67 68 71 71 67 68 67 65 60 59 62 66 68 70 69 69 70 70 68 71 71
84 83 79 78 78 78 75 75 71 73 70 74 74 75 75 78 78 75 74 71 71 68 68 67 71 69 68 65 66 67 66 64 60 60 65 66 68 69 68 70 67 68 68
85 80 78 76 75 78 77 78 75 69 71 72 72 73 73 73 74 74 73 72 71 68 69 70 69 67 67 65 64 64 64 63 64 62 60 64 66 67 69 69 68 67 67
82 80 75 75 77 75 77 76 76 71 71 69 69 70 70 69 70 71 73 72 71 71 71 70 69 68 68 67 66 65 64 62 62 62 62 63 64 67 69 69 67 66 66

GFSSE_sfc_temp_354.txt.gz
Temp
72 76 83 83 83 83 83 84 83 84 83 83 83 83 83 84 84 84 84 84 84 84 84 84 84 84 84 83 83 83 83 83 83 84 84 84 83 82 83 83 82 84 82
75 78 82 83 83 83 83 83 83 83 83 83 83 83 83 84 84 84 84 84 84 84 84 84 84 84 83 83 83 84 83 83 83 83 84 84 84 83 83 83 83 83 82
76 79 81 82 83 83 83 83 83 83 84 84 83 84 84 84 84 84 84 84 84 84 84 84 84 83 83 83 83 83 83 83 83 83 84 81 82 83 83 83 83 82 83
77 77 79 82 83 83 83 83 83 83 83 83 83 84 84 84 84 84 84 83 84 84 84 84 84 83 83 83 83 83 83 83 83 83 78 80 84 84 84 83 83 82 82
75 76 79 83 83 83 83 83 83 83 83 83 84 84 84 84 83 84 84 84 84 82 83 84 84 83 83 83 83 82 82 82 82 79 76 76 78 84 84 83 83 82 82
75 77 82 83 84 83 83 83 83 83 83 83 83 84 84 84 84 84 84 83 84 84 83 84 84 83 83 83 83 83 82 82 82 78 76 77 78 81 83 84 83 83 82
74 76 80 83 83 83 83 83 83 83 83 83 84 84 84 84 84 84 84 84 84 84 84 84 84 84 83 83 83 83 82 82 77 77 76 76 77 79 83 83 83 82 82
75 76 78 82 83 83 83 83 83 83 83 83 84 84 84 84 84 84 84 84 84 84 84 84 84 84 84 84 84 83 83 83 80 77 77 76 77 79 83 83 82 82 82
77 76 76 78 82 83 83 83 83 83 83 84 84 83 84 84 84 84 84 83 84 84 83 84 84 84 84 84 84 83 83 83 76 76 78 76 78 80 83 83 83 82 82
74 75 74 75 77 78 80 83 83 83 84 84 84 84 83 84 84 84 83 82 83 83 83 83 84 84 83 83 83 83 83 82 76 77 77 77 79 82 83 82 82 82 82
74 73 74 74 74 75 76 80 83 83 84 84 84 84 83 79 80 82 82 82 84 84 84 84 84 82 81 82 81 81 82 75 76 76 77 79 80 82 83 82 82 82 81
73 72 73 73 73 74 80 77 77 78 79 78 78 78 77 77 77 81 81 83 83 84 84 84 84 83 82 77 77 79 74 75 75 75 76 80 81 82 83 82 82 82 81
72 74 73 72 73 73 77 74 75 75 75 76 76 75 76 77 76 78 77 78 77 80 79 82 82 80 79 76 74 74 74 75 74 74 77 79 80 82 82 82 82 81 82
71 73 74 73 72 72 73 73 74 74 74 74 75 74 74 75 75 75 75 76 75 76 77 77 79 78 77 76 75 74 74 74 73 74 74 79 80 81 82 82 81 81 82
72 73 74 74 72 73 72 73 73 73 74 74 74 74 74 74 74 75 75 76 76 76 76 75 76 76 76 76 75 75 75 75 75 75 73 79 80 81 82 83 82 82 82
74 73 75 74 74 73 72 72 73 73 74 73 73 74 74 74 74 75 75 75 75 75 75 75 75 75 75 74 74 75 75 75 76 75 75 74 79 80 81 82 82 82 82
75 76 75 75 75 73 73 72 73 74 75 73 73 73 74 74 73 74 75 75 76 76 75 75 75 74 73 74 73 75 75 76 76 76 76 75 76 79 80 81 82 82 82
77 75 76 79 77 74 75 74 74 74 75 75 74 74 75 75 74 74 75 75 76 76 75 75 73 73 72 72 72 73 74 75 76 76 77 77 77 77 79 80 80 81 81
78 76 76 77 77 75 75 75 74 75 75 76 75 75 75 76 76 75 76 77 76 75 75 74 73 73 72 73 74 74 73 74 75 77 76 76 76 77 76 77 79 80 81
80 78 77 77 77 75 75 74 73 73 75 76 76 77 76 76 76 75 76 75 75 73 73 73 73 73 72 74 77 77 73 73 73 74 73 77 76 76 77 77 77 79 80
80 78 77 76 76 75 74 73 72 73 74 75 77 77 77 77 76 75 76 74 74 73 73 73 72 72 70 72 71 73 72 73 72 72 73 74 74 75 75 76 75 75 76
78 78 76 75 76 76 77 77 77 76 76 76 77 78 78 77 77 76 74 74 74 73 72 72 71 69 70 70 69 68 66 70 71 74 74 74 74 73 74 74 74 74 75
77 77 76 75 74 77 78 77 71 72 71 72 71 74 76 77 77 75 74 73 73 73 72 72 71 70 68 69 70 67 62 63 65 70 71 73 73 72 73 73 73 73 74
80 79 78 77 74 76 77 75 74 75 72 77 77 76 75 75 76 75 75 74 74 72 72 72 72 71 69 67 68 68 68 67 64 65 69 69 71 72 72 73 72 72 71
79 78 78 76 74 75 76 77 75 74 75 72 72 71 72 72 74 74 74 74 73 72 72 70 70 71 71 67 66 66 66 66 66 64 63 65 68 70 71 72 73 73 72
77 77 75 73 73 74 75 74 75 72 70 67 67 67 68 70 72 73 74 73 73 72 71 70 70 70 69 67 67 66 66 66 65 65 63 63 66 68 71 72 70 70 71